Lancaster, CA

2:47 PM PDT on October 17, 2017 (GMT -0700)
Gen Fox

Weather History for KWJF - February, 2013

Change the Weather History Date:

Tuesday, February 19, 2013

  Actual Average Record
Temperature  
Mean Temperature 44 °F 49 °F  
Max Temperature 52 °F 62 °F 80 °F (1981)
Min Temperature 35 °F 36 °F 19 °F (1955)
Degree Days  
Heating Degree Days 21    
Month to date heating degree days 357  
Since 1 July heating degree days 2189  
Cooling Degree Days 0    
Month to date cooling degree days 0  
Year to date cooling degree days 0  
Moisture  
Dew Point 33 °F    
Average Humidity 63    
Maximum Humidity 76    
Minimum Humidity 50    
Precipitation  
Precipitation 0.03 in 0.07 in 1.35 in (2005)
Month to date precipitation 0.20 1.23  
Year to date precipitation 0.60 2.73  
Since 1 July precipitation 0.76  
Snow  
Snow 0.00 in - 0.00 in ()
Month to date snowfall 0.0  
Since 1 July snowfall 0.0  
Snow Depth 0.00 in    
Sea Level Pressure  
Sea Level Pressure 29.80 in    
Wind  
Wind Speed 18 mph (WSW)    
Max Wind Speed 29 mph    
Max Gust Speed 35 mph    
Visibility 10 miles    
Events Rain    
T = Trace of Precipitation, MM = Missing Value Source: NWS Daily Summary

Daily Weather History Graph

Daily Weather History Graph

Search for Another Location

Airport or City:

Trip Planner

Search our weather history database for the weather conditions in past years. The results will help you decide how hot, cold, wet, or windy it might be!

Date:

Astronomy

Feb. 19, 2013 Rise Set
Actual Time 6:33 AM PST 5:40 PM PST
Civil Twilight 6:08 AM PST 6:05 PM PST
Nautical Twilight 5:38 AM PST 6:35 PM PST
Astronomical Twilight 5:09 AM PST 7:04 PM PST
Moon 12:22 PM PST (2/19) 2:02 AM PST (2/19)
Length of Visible Light 11h 57m
Length of Day
11h 06m
Waxing Gibbous, 68% of the Moon is Illuminated
Feb 19
Waxing Gibbous
Feb 25
Full
Mar 4
Last Quarter
Mar 11
New
Mar 19
First Quarter

Hourly Weather History & Observations

Time (PST) Temp. Windchill Dew Point Humidity Pressure Visibility Wind Dir Wind Speed Gust Speed Precip Events Conditions
12:56 AM 43.0 °F 36.4 °F 34.0 °F 71% 29.91 in - WNW 12.7 mph - N/A   Clear
1:56 AM 43.0 °F 35.4 °F 34.0 °F 71% 29.89 in - West 16.1 mph 26.5 mph N/A   Partly Cloudy
2:56 AM 44.1 °F 40.1 °F 34.0 °F 68% 29.88 in - Variable 6.9 mph 16.1 mph N/A   Partly Cloudy
3:08 AM 44.6 °F 41.4 °F 33.8 °F 66% 29.88 in - West 5.8 mph - N/A   Mostly Cloudy
3:25 AM 44.6 °F 40.7 °F 33.8 °F 66% 29.87 in - West 6.9 mph - N/A   Scattered Clouds
3:56 AM 43.0 °F 37.2 °F 33.1 °F 68% 29.86 in - WSW 10.4 mph - N/A   Clear
4:56 AM 43.0 °F 34.2 °F 34.0 °F 71% 29.86 in - WSW 20.7 mph - N/A   Clear
5:56 AM 43.0 °F 34.5 °F 34.0 °F 71% 29.89 in - WSW 19.6 mph 29.9 mph N/A   Clear
6:26 AM 44.6 °F 36.1 °F 33.8 °F 66% 29.87 in - WSW 21.9 mph - N/A   Mostly Cloudy
6:56 AM 43.0 °F 34.5 °F 34.0 °F 71% 29.88 in - WSW 19.6 mph - N/A   Overcast
7:52 AM 44.6 °F 36.6 °F 33.8 °F 66% 29.87 in - West 19.6 mph - N/A   Mostly Cloudy
7:56 AM 45.0 °F 37.1 °F 33.1 °F 63% 29.88 in - West 19.6 mph - N/A   Scattered Clouds
8:56 AM 45.0 °F 38.5 °F 32.0 °F 60% 29.88 in - WSW 13.8 mph - N/A   Partly Cloudy
9:56 AM 48.9 °F - 32.0 °F 52% 29.86 in - WSW 21.9 mph 28.8 mph N/A   Clear
10:56 AM 50.0 °F - 32.0 °F 50% 29.85 in - WSW 20.7 mph 33.4 mph N/A   Partly Cloudy
11:24 AM 50.0 °F - 32.0 °F 50% 29.82 in - SW 23.0 mph 28.8 mph N/A   Mostly Cloudy
11:34 AM 50.0 °F - 32.0 °F 50% 29.82 in - WSW 24.2 mph 32.2 mph N/A   Scattered Clouds
11:56 AM 50.0 °F - 32.0 °F 50% 29.83 in 10.0 mi WSW 23.0 mph 29.9 mph N/A   Clear
12:56 PM 50.0 °F - 34.0 °F 54% 29.80 in 10.0 mi SW 18.4 mph 28.8 mph N/A   Mostly Cloudy
1:10 PM 48.2 °F - 33.8 °F 58% 29.78 in 10.0 mi WSW 23.0 mph 31.1 mph N/A   Mostly Cloudy
1:22 PM 48.2 °F - 35.6 °F 62% 29.78 in 10.0 mi SW 16.1 mph 26.5 mph N/A   Mostly Cloudy
1:30 PM 48.2 °F - 35.6 °F 62% 29.77 in 10.0 mi WSW 23.0 mph 29.9 mph N/A   Mostly Cloudy
1:56 PM 48.0 °F - 35.1 °F 61% 29.77 in 10.0 mi SW 19.6 mph 32.2 mph N/A   Scattered Clouds
2:56 PM 46.9 °F - 36.0 °F 66% 29.78 in 10.0 mi SW 17.3 mph 26.5 mph N/A   Mostly Cloudy
4:56 PM 45.0 °F 38.2 °F 34.0 °F 65% 29.73 in 10.0 mi SW 15.0 mph - N/A   Mostly Cloudy
5:56 PM 43.0 °F 34.0 °F 33.1 °F 68% 29.70 in 10.0 mi SW 21.9 mph 28.8 mph N/A   Scattered Clouds
6:56 PM 43.0 °F 34.2 °F 34.0 °F 71% 29.70 in 10.0 mi SW 20.7 mph - N/A   Overcast
7:56 PM 41.0 °F 33.9 °F 34.0 °F 76% 29.70 in 10.0 mi SW 12.7 mph - 0.00 in Rain Light Rain
8:16 PM 41.0 °F 33.1 °F 33.8 °F 76% 29.67 in 10.0 mi SW 15.0 mph - 0.00 in   Overcast
8:56 PM 36.0 °F 24.7 °F 30.9 °F 82% 29.72 in 4.0 mi West 21.9 mph 34.5 mph 0.02 in Rain Rain
9:56 PM 37.0 °F 26.4 °F 30.9 °F 79% 29.70 in 10.0 mi West 20.7 mph 26.5 mph 0.01 in   Overcast
10:56 PM 37.0 °F 26.7 °F 30.0 °F 76% 29.68 in 10.0 mi West 19.6 mph - N/A   Overcast
11:56 PM 35.1 °F 23.3 °F 28.0 °F 76% 29.67 in 10.0 mi West 23.0 mph - N/A   Mostly Cloudy